Showing default

POSAT 2, 63488

Orbit data source: Space-Track

POSAT 2, 63488 is a Portuguese payload satellite in SSO that was launched on Tue, 14 Jan 2025 UTC via an FALCON 9 launch vehicle from the Air Force Western Test Range (AFWTR). Payload-class satellites include a variety of spacecraft equipped with specific instruments for various scientific and technological missions. These include communications satellites like Starlink; space stations such as the ISS; scientific satellites like the Hubble; Earth observation satellites from companies like Planet Labs, Umbra, and HawkEye 360; GPS; miniature CubeSats for education and research; and military/defense satellites.

Loading next visibility...
Identifier
63488, 2025-009DR
Orbit
SSO
Country
Flag of PTPT / POR
Related business
Manufacturer
LUSO
Mission
Operational Commercial Communications
Bus & Motor
CUBESAT 3U, Unknown motor
Mass
5 kg wet, 5 kg dry
Launch date (UTC)
2025-01-14 (1 year ago)
Launch vehicle
FALCON 9
Launch site
Air Force Western Test Range (AFWTR)
Object type
Payload
Rocket body
Debris
Shape & HBR
Box + 2 Pan, 14.5 m
Radar Cross Section
0.048 m², Small (<0.1 m²)

Expand to show TLE details & history
Last TLE update: 6 hours ago

TLE from 6 hours ago
0 POSAT 2
1 63488U 25009DR  26104.26675895  .00006759  00000-0  40284-3 0  9994
2 63488  97.4875 180.5690 0006003  20.3041 339.8427 15.11485977 56981
Epoch: 2026-04-14T06:24Z
TLE epoch observation values (Epoch: 2026-04-14T06:24:07.973Z)
Latitude
Longitude
-117.90969°
Altitude
530.849 km
Speed
7.6 km/s
True Right ascension
12h 02m 16s
True Declination
0° 00' 00"
Sunlit
Object was in full shadow at epoch
Visualization orbit readout
Latitude
Unknown
Longitude
Unknown
Altitude
Unknown
Speed
Unknown
Apparent Right ascension
Unknown
Apparent Declination
Unknown
Sunlit
N/A
Visualization observer readout
Local Sidereal Time
19:13:03
Azimuth
Unknown
Elevation
Unknown
Doppler factor
Unknown
Orbital elements
Apogee altitude
532.794 km
Perigee altitude
524.502 km
Semi-major axis
6,906.785 km
Eccentricity
0.0006
Inclination
97.4875°
RAAN
180.569°
Arg. of periapsis
20.3041°
True anomaly
339.81898°
Mean anomaly
339.8427°
Eccentric anomaly
339.83084°
Mean motion
3.7812 °/min
Orbital period
95.21 mins
BSTAR
0.00040284
Loading maneuver chart data...
Computing Atmospheric mass density...
Loading historical data...
Loading historical data...
Loading historical data...
Loading historical data...
Loading historical data...
Loading historical data...
Loading historical data...

Documentation

Showing up to 5 results
|